Time,TemperatureF,DewpointF,PressureIn,WindDirection,WindDirectionDegrees,WindSpeedMPH,WindSpeedGustMPH,Humidity,HourlyPrecipIn,Conditions,Clouds,dailyrainin,SolarRadiationWatts/m^2,SoftwareType,DateUTC
2013-02-05 01:00:00,35.0,24.0,29.96,WSW,245,8.0,-999.0,65,-99.99,,,-99.99,0.130000,,2013-02-05 08:00:00,
2013-02-05 01:52:00,35.0,24.0,29.96,WSW,245,8.0,-999.0,65,-99.99,,,-99.99,0.130000,,2013-02-05 08:52:00,
2013-02-05 02:00:00,34.0,24.0,29.96,West,265,10.0,-999.0,67,-99.99,,,-99.99,0.110000,,2013-02-05 09:00:00,
2013-02-05 02:52:00,34.0,24.0,29.96,West,265,10.0,-999.0,67,-99.99,,,-99.99,0.110000,,2013-02-05 09:52:00,
2013-02-05 03:00:00,29.0,24.0,29.96,SW,226,6.0,-999.0,80,-99.99,,,-99.99,0.120000,,2013-02-05 10:00:00,
2013-02-05 03:52:00,29.0,24.0,29.96,SW,226,6.0,-999.0,80,-99.99,,,-99.99,0.120000,,2013-02-05 10:52:00,
2013-02-05 04:00:00,35.0,23.0,29.95,WSW,242,7.0,-999.0,60,-99.99,,,-99.99,0.070000,,2013-02-05 11:00:00,
2013-02-05 04:52:00,35.0,23.0,29.95,WSW,242,7.0,-999.0,60,-99.99,,,-99.99,0.070000,,2013-02-05 11:52:00,
2013-02-05 05:00:00,33.0,23.0,29.94,SW,234,6.0,-999.0,67,-99.99,,,-99.99,0.130000,,2013-02-05 12:00:00,
2013-02-05 05:52:00,33.0,23.0,29.94,SW,234,6.0,-999.0,67,-99.99,,,-99.99,0.130000,,2013-02-05 12:52:00,
2013-02-05 06:00:00,33.0,22.0,29.93,SW,233,6.0,-999.0,64,-99.99,,,-99.99,0.110000,,2013-02-05 13:00:00,
2013-02-05 06:52:00,33.0,22.0,29.93,SW,233,6.0,-999.0,64,-99.99,,,-99.99,0.110000,,2013-02-05 13:52:00,
2013-02-05 07:00:00,29.0,23.0,29.93,West,264,4.0,-999.0,79,-99.99,,,-99.99,0.090000,,2013-02-05 14:00:00,
2013-02-05 07:52:00,29.0,23.0,29.93,West,264,4.0,-999.0,79,-99.99,,,-99.99,0.090000,,2013-02-05 14:52:00,
2013-02-05 08:00:00,34.0,22.0,29.93,SSW,211,4.0,-999.0,62,-99.99,,,-99.99,3.620000,,2013-02-05 15:00:00,
2013-02-05 08:52:00,34.0,22.0,29.93,SSW,211,4.0,-999.0,62,-99.99,,,-99.99,3.620000,,2013-02-05 15:52:00,
2013-02-05 10:00:00,42.0,21.0,29.91,SSW,208,4.0,-999.0,43,-99.99,,,-99.99,121.099998,,2013-02-05 17:00:00,
2013-02-05 10:52:00,42.0,21.0,29.91,SSW,208,4.0,-999.0,43,-99.99,,,-99.99,121.099998,,2013-02-05 17:52:00,
2013-02-05 11:00:00,43.0,24.0,29.89,SW,214,7.0,-999.0,47,-99.99,,,-99.99,195.000000,,2013-02-05 18:00:00,
2013-02-05 11:52:00,43.0,24.0,29.89,SW,214,7.0,-999.0,47,-99.99,,,-99.99,195.000000,,2013-02-05 18:52:00,
2013-02-05 12:00:00,44.0,26.0,29.87,SW,215,9.0,-999.0,48,-99.99,,,-99.99,190.600006,,2013-02-05 19:00:00,
2013-02-05 12:52:00,44.0,26.0,29.87,SW,215,9.0,-999.0,48,-99.99,,,-99.99,190.600006,,2013-02-05 19:52:00,
2013-02-05 13:00:00,46.0,29.0,29.84,SW,223,9.0,-999.0,50,-99.99,,,-99.99,391.299988,,2013-02-05 20:00:00,
2013-02-05 13:52:00,46.0,29.0,29.84,SW,223,9.0,-999.0,50,-99.99,,,-99.99,391.299988,,2013-02-05 20:52:00,
2013-02-05 14:00:00,44.0,28.0,29.82,West,274,13.0,-999.0,52,-99.99,,,-99.99,117.500000,,2013-02-05 21:00:00,
2013-02-05 14:52:00,44.0,28.0,29.82,West,274,13.0,-999.0,52,-99.99,,,-99.99,117.500000,,2013-02-05 21:52:00,
2013-02-05 15:00:00,43.0,28.0,29.82,West,274,13.0,-999.0,54,-99.99,,,-99.99,102.500000,,2013-02-05 22:00:00,
2013-02-05 15:52:00,43.0,28.0,29.82,West,274,13.0,-999.0,54,-99.99,,,-99.99,102.500000,,2013-02-05 22:52:00,
2013-02-05 16:00:00,44.0,29.0,29.81,WSW,238,10.0,-999.0,55,-99.99,,,-99.99,122.000000,,2013-02-05 23:00:00,
2013-02-05 16:52:00,44.0,29.0,29.81,WSW,238,10.0,-999.0,55,-99.99,,,-99.99,122.000000,,2013-02-05 23:52:00,
2013-02-05 17:00:00,40.0,27.0,29.80,WSW,248,6.0,-999.0,60,-99.99,,,-99.99,63.889999,,2013-02-06 00:00:00,
2013-02-05 17:52:00,40.0,27.0,29.80,WSW,248,6.0,-999.0,60,-99.99,,,-99.99,63.889999,,2013-02-06 00:52:00,
2013-02-05 18:00:00,36.0,29.0,29.81,SSW,205,3.0,-999.0,74,-99.99,,,-99.99,7.070000,,2013-02-06 01:00:00,
2013-02-05 18:53:00,36.0,29.0,29.81,SSW,205,3.0,-999.0,74,-99.99,,,-99.99,7.070000,,2013-02-06 01:53:00,
2013-02-05 19:00:00,37.0,25.0,29.79,SSW,198,3.0,-999.0,60,-99.99,,,-99.99,0.180000,,2013-02-06 02:00:00,
2013-02-05 19:52:00,37.0,25.0,29.79,SSW,198,3.0,-999.0,60,-99.99,,,-99.99,0.180000,,2013-02-06 02:52:00,
2013-02-05 20:00:00,39.0,25.0,29.79,SW,234,6.0,-999.0,57,-99.99,,,-99.99,0.140000,,2013-02-06 03:00:00,
2013-02-05 20:53:00,39.0,25.0,29.79,SW,234,6.0,-999.0,57,-99.99,,,-99.99,0.140000,,2013-02-06 03:53:00,
2013-02-05 21:00:00,33.0,26.0,29.79,WSW,253,6.0,-999.0,74,-99.99,,,-99.99,0.160000,,2013-02-06 04:00:00,
2013-02-05 21:52:00,33.0,26.0,29.79,WSW,253,6.0,-999.0,74,-99.99,,,-99.99,0.160000,,2013-02-06 04:52:00,
2013-02-05 22:00:00,30.0,25.0,29.78,WSW,249,6.0,-999.0,81,-99.99,,,-99.99,0.170000,,2013-02-06 05:00:00,
2013-02-05 22:53:00,30.0,25.0,29.78,WSW,249,6.0,-999.0,81,-99.99,,,-99.99,0.170000,,2013-02-06 05:53:00,
2013-02-05 23:00:00,34.0,25.0,29.77,West,261,10.0,-999.0,70,-99.99,,,-99.99,0.090000,,2013-02-06 06:00:00,
2013-02-05 23:52:00,34.0,25.0,29.77,West,261,10.0,-999.0,70,-99.99,,,-99.99,0.090000,,2013-02-06 06:52:00,